Flag for United Kingdom Weather past 2 weeks in Cardiff, Wales, United Kingdom

Now
43 °F

Quite cool.


Feels Like: 40 °F
Forecast: 37 / 51 °F
Wind: 5 mph from North

Location: Wales Airport

Current Time: Apr 26, 2015 at 11:42:11 PM

Latest Report: Apr 26, 2015 at 11:20 PM


Visibility: N/A

Pressure: 29.86 "Hg

Humidity: 57%

Dew point: 28 °F

Location of CardiffLocation

Historic Weather in Cardiff — Graph

°F

Cardiff temperature yesterday

Maximum temperature yesterday: 59 °F (at 1:20 PM)
Minimum temperature yesterday: 48 °F (at 11:20 PM)
Average temperature yesterday: 53 °F

Past Weeks' High & Low Weather Summary

 TemperatureHumidityPressure
High64 °F (Apr 21, 3:20 PM)100% (Apr 12, 7:50 PM)30.57 "Hg (Apr 12, 7:50 PM)
Low39 °F (Apr 19, 5:20 AM)40% (Apr 21, 3:50 PM)29.65 "Hg (Apr 25, 4:50 PM)
Average51 °F75%30.16 "Hg
* Reported Apr 11 10:20 PM — Apr 26 10:20 PM, Cardiff, Weather by CustomWeather, © 2015

Note: Actual official high and low records may vary slightly from our data, if they occured in-between our weather recording intervals... More about our weather records

Advertising

Cardiff weather history for previous 24 hours

 ConditionsComfort  
Time TempWeatherWind HumidityBarometerVisibility
10:20 PM
Sun, Apr 26
43 °FQuite cool.6 mph57%29.86 "HgN/A
9:50 PM45 °FQuite cool.7 mph53%29.83 "HgN/A
9:20 PM46 °FCool.8 mph50%29.83 "HgN/A
8:50 PM48 °FCool.5 mph62%29.83 "HgN/A
8:20 PM50 °FCool.6 mph67%29.80 "HgN/A
7:50 PM52 °FCool.8 mph58%29.80 "HgN/A
7:20 PM52 °FCool.9 mph62%29.80 "HgN/A
6:50 PM54 °FPassing clouds.8 mph58%29.80 "HgN/A
6:20 PM54 °FCool.9 mph63%29.80 "HgN/A
5:50 PM52 °FCool.9 mph67%29.77 "HgN/A
5:20 PM55 °FRefreshingly cool.8 mph59%29.77 "HgN/A
4:50 PM54 °FCool.10 mph54%29.77 "HgN/A
4:20 PM55 °FRefreshingly cool.13 mph59%29.77 "HgN/A
3:50 PM55 °FRefreshingly cool.15 mph59%29.77 "HgN/A
3:20 PM55 °FScattered clouds.10 mph51%29.77 "HgN/A
2:50 PM55 °FScattered clouds.10 mph51%29.80 "HgN/A
2:20 PM55 °FRefreshingly cool.8 mph47%29.80 "HgN/A
1:50 PM54 °FOvercast.8 mph51%29.80 "HgN/A
1:20 PM52 °FOvercast.10 mph54%29.80 "HgN/A
12:50 PM50 °FOvercast.12 mph58%29.80 "HgN/A
12:20 PM50 °FOvercast.14 mph62%29.80 "HgN/A
11:50 AM48 °FOvercast.14 mph66%29.80 "HgN/A
11:20 AM48 °FOvercast.15 mph66%29.80 "HgN/A
10:50 AM46 °FOvercast.14 mph71%29.80 "HgN/A
10:20 AM45 °FOvercast.14 mph81%29.80 "HgN/A
9:50 AM45 °FOvercast.13 mph81%29.80 "HgN/A
9:20 AM45 °FOvercast.14 mph81%29.80 "HgN/A
8:50 AM43 °FOvercast.14 mph87%29.80 "HgN/A
8:20 AM45 °FOvercast.12 mph81%29.80 "HgN/A
7:50 AM43 °FOvercast.14 mph87%29.77 "HgN/A
7:20 AM43 °FOvercast.14 mph87%29.77 "HgN/A
6:50 AM45 °FOvercast.14 mph81%29.77 "HgN/A
6:20 AM45 °FOvercast.14 mph81%29.74 "HgN/A
5:50 AM45 °FOvercast.14 mph81%29.74 "HgN/A
5:20 AM45 °FOvercast.12 mph76%29.74 "HgN/A
4:20 AM45 °FOvercast.13 mph76%29.74 "HgN/A
3:50 AM45 °FOvercast.10 mph76%29.74 "HgN/A
3:20 AM45 °FOvercast.7 mph87%29.74 "HgN/A
2:50 AM45 °FLight rain. Overcast.8 mph87%29.74 "HgN/A
2:20 AM45 °FOvercast.8 mph81%29.74 "HgN/A
1:50 AM45 °FOvercast.12 mph87%29.74 "HgN/A
1:20 AM45 °FOvercast.12 mph87%29.74 "HgN/A
12:50 AM46 °FOvercast.10 mph87%29.74 "HgN/A
12:20 AM46 °FPassing clouds.8 mph87%29.74 "HgN/A
11:50 PM
Sat, Apr 25
48 °FPartly cloudy.6 mph87%29.71 "HgN/A
11:20 PM48 °FPassing clouds.6 mph100%29.71 "Hg6 mi
Weather by CustomWeather, © 2015

See weather overviewHow to use our weather pages